Time,TemperatureF,DewpointF,PressureIn,WindDirection,WindDirectionDegrees,WindSpeedMPH,WindSpeedGustMPH,Humidity,HourlyPrecipIn,Conditions,Clouds,dailyrainin,SoftwareType,DateUTC
2013-03-28 00:01:00,46.0,45.0,29.96,North,5,0.0,-999.0,95,-99.99,,,-99.99,,2013-03-28 07:01:00,
2013-03-28 00:12:00,46.0,45.0,29.96,North,5,0.0,-999.0,95,-99.99,,,-99.99,,2013-03-28 07:12:00,
2013-03-28 00:22:00,46.0,45.0,29.96,North,360,0.0,-999.0,95,-99.99,,,-99.99,,2013-03-28 07:22:00,
2013-03-28 00:32:00,46.0,45.0,29.96,North,360,0.0,-999.0,96,-99.99,,,-99.99,,2013-03-28 07:32:00,
2013-03-28 00:42:00,46.0,45.0,29.96,North,360,0.0,-999.0,96,-99.99,,,-99.99,,2013-03-28 07:42:00,
2013-03-28 00:52:00,46.0,45.0,29.96,North,360,0.0,-999.0,96,-99.99,,,-99.99,,2013-03-28 07:52:00,
2013-03-28 01:02:00,46.0,45.0,29.97,East,87,0.0,-999.0,96,-99.99,,,-99.99,,2013-03-28 08:02:00,
2013-03-28 01:11:00,46.0,45.0,29.97,East,87,0.0,-999.0,96,-99.99,,,-99.99,,2013-03-28 08:11:00,
2013-03-28 01:21:00,46.0,45.0,29.98,East,87,0.0,-999.0,96,-99.99,,,-99.99,,2013-03-28 08:21:00,
2013-03-28 01:31:00,46.0,45.0,29.98,East,87,0.0,-999.0,96,-99.99,,,-99.99,,2013-03-28 08:31:00,
2013-03-28 01:41:00,46.0,45.0,29.98,East,87,0.0,-999.0,96,-99.99,,,-99.99,,2013-03-28 08:41:00,
2013-03-28 01:52:00,46.0,45.0,29.97,East,87,0.0,-999.0,96,-99.99,,,-99.99,,2013-03-28 08:52:00,
2013-03-28 02:01:00,46.0,45.0,29.98,East,87,0.0,-999.0,96,-99.99,,,-99.99,,2013-03-28 09:01:00,
2013-03-28 02:11:00,46.0,45.0,29.98,East,87,0.0,-999.0,96,-99.99,,,-99.99,,2013-03-28 09:11:00,
2013-03-28 02:22:00,47.0,46.0,29.98,East,87,0.0,-999.0,96,-99.99,,,-99.99,,2013-03-28 09:22:00,
2013-03-28 02:32:00,47.0,46.0,29.98,East,87,0.0,-999.0,96,-99.99,,,-99.99,,2013-03-28 09:32:00,
2013-03-28 02:42:00,47.0,46.0,29.98,East,87,0.0,-999.0,96,-99.99,,,-99.99,,2013-03-28 09:42:00,
2013-03-28 02:52:00,47.0,46.0,29.98,East,87,0.0,-999.0,96,-99.99,,,-99.99,,2013-03-28 09:52:00,
2013-03-28 03:02:00,47.0,46.0,29.98,East,87,0.0,-999.0,96,-99.99,,,-99.99,,2013-03-28 10:02:00,
2013-03-28 03:12:00,47.0,46.0,29.98,East,87,0.0,-999.0,96,-99.99,,,-99.99,,2013-03-28 10:12:00,
2013-03-28 03:22:00,47.0,46.0,29.98,East,87,0.0,-999.0,96,-99.99,,,-99.99,,2013-03-28 10:22:00,
2013-03-28 03:32:00,47.0,46.0,29.98,East,87,0.0,-999.0,96,-99.99,,,-99.99,,2013-03-28 10:32:00,
2013-03-28 03:42:00,47.0,46.0,29.98,East,87,0.0,-999.0,96,-99.99,,,-99.99,,2013-03-28 10:42:00,
2013-03-28 03:52:00,47.0,46.0,29.98,East,87,0.0,-999.0,96,-99.99,,,-99.99,,2013-03-28 10:52:00,
2013-03-28 04:02:00,47.0,46.0,29.98,East,87,0.0,-999.0,96,-99.99,,,-99.99,,2013-03-28 11:02:00,
2013-03-28 04:12:00,47.0,46.0,29.98,East,87,0.0,-999.0,96,-99.99,,,-99.99,,2013-03-28 11:12:00,
2013-03-28 04:22:00,47.0,46.0,29.98,East,87,0.0,-999.0,96,-99.99,,,-99.99,,2013-03-28 11:22:00,
2013-03-28 04:32:00,47.0,46.0,29.97,East,87,0.0,-999.0,96,-99.99,,,-99.99,,2013-03-28 11:32:00,
2013-03-28 04:42:00,47.0,46.0,29.97,East,87,0.0,-999.0,96,-99.99,,,-99.99,,2013-03-28 11:42:00,
2013-03-28 04:52:00,47.0,46.0,29.97,East,87,0.0,-999.0,96,-99.99,,,-99.99,,2013-03-28 11:52:00,
2013-03-28 05:02:00,47.0,46.0,29.97,East,87,0.0,-999.0,96,-99.99,,,-99.99,,2013-03-28 12:02:00,
2013-03-28 05:11:00,47.0,46.0,29.97,East,87,0.0,-999.0,96,-99.99,,,-99.99,,2013-03-28 12:11:00,
2013-03-28 05:22:00,47.0,46.0,29.98,East,87,0.0,-999.0,96,-99.99,,,-99.99,,2013-03-28 12:22:00,
2013-03-28 05:32:00,47.0,46.0,29.98,East,87,0.0,-999.0,97,-99.99,,,-99.99,,2013-03-28 12:32:00,
2013-03-28 05:42:00,47.0,46.0,29.98,East,87,0.0,-999.0,97,-99.99,,,-99.99,,2013-03-28 12:42:00,
2013-03-28 05:52:00,47.0,46.0,29.98,East,87,0.0,-999.0,97,-99.99,,,-99.99,,2013-03-28 12:52:00,
2013-03-28 06:01:00,47.0,46.0,29.98,East,87,0.0,-999.0,97,-99.99,,,-99.99,,2013-03-28 13:01:00,
2013-03-28 06:11:00,47.0,46.0,29.98,East,87,0.0,-999.0,97,-99.99,,,-99.99,,2013-03-28 13:11:00,
2013-03-28 06:21:00,47.0,46.0,29.99,East,87,0.0,-999.0,97,-99.99,,,-99.99,,2013-03-28 13:21:00,
2013-03-28 06:31:00,47.0,46.0,29.99,East,87,0.0,-999.0,97,-99.99,,,-99.99,,2013-03-28 13:31:00,
2013-03-28 06:41:00,47.0,46.0,29.99,East,87,0.0,-999.0,97,-99.99,,,-99.99,,2013-03-28 13:41:00,
2013-03-28 06:52:00,47.0,46.0,29.99,East,87,0.0,-999.0,97,-99.99,,,-99.99,,2013-03-28 13:52:00,
2013-03-28 07:01:00,47.0,46.0,29.99,East,87,0.0,-999.0,97,-99.99,,,-99.99,,2013-03-28 14:01:00,
2013-03-28 07:11:00,47.0,46.0,29.99,East,87,0.0,-999.0,97,-99.99,,,-99.99,,2013-03-28 14:11:00,
2013-03-28 07:22:00,47.0,46.0,29.99,East,87,0.0,-999.0,97,-99.99,,,-99.99,,2013-03-28 14:22:00,
2013-03-28 07:32:00,47.0,46.0,29.99,East,87,0.0,-999.0,97,-99.99,,,-99.99,,2013-03-28 14:32:00,
2013-03-28 07:42:00,47.0,46.0,29.99,East,87,0.0,-999.0,97,-99.99,,,-99.99,,2013-03-28 14:42:00,
2013-03-28 07:52:00,47.0,46.0,30.00,East,87,0.0,-999.0,97,-99.99,,,-99.99,,2013-03-28 14:52:00,
2013-03-28 08:01:00,47.0,46.0,30.00,East,87,0.0,-999.0,97,-99.99,,,-99.99,,2013-03-28 15:01:00,
2013-03-28 08:11:00,47.0,46.0,30.00,East,87,0.0,-999.0,97,-99.99,,,-99.99,,2013-03-28 15:11:00,
2013-03-28 08:21:00,47.0,46.0,30.00,East,87,0.0,-999.0,97,-99.99,,,-99.99,,2013-03-28 15:21:00,
2013-03-28 08:32:00,48.0,47.0,30.00,East,87,0.0,-999.0,97,-99.99,,,-99.99,,2013-03-28 15:32:00,
2013-03-28 08:42:00,48.0,47.0,30.00,East,87,0.0,-999.0,97,-99.99,,,-99.99,,2013-03-28 15:42:00,
2013-03-28 08:53:00,48.0,47.0,30.00,East,87,0.0,-999.0,97,-99.99,,,-99.99,,2013-03-28 15:53:00,
2013-03-28 09:02:00,49.0,48.0,30.01,East,87,0.0,-999.0,97,-99.99,,,-99.99,,2013-03-28 16:02:00,
2013-03-28 09:22:00,49.0,48.0,30.01,East,87,0.0,-999.0,97,-99.99,,,-99.99,,2013-03-28 16:22:00,
2013-03-28 09:32:00,50.0,49.0,30.01,East,87,0.0,-999.0,97,-99.99,,,-99.99,,2013-03-28 16:32:00,
2013-03-28 09:41:00,50.0,49.0,30.01,East,87,0.0,-999.0,97,-99.99,,,-99.99,,2013-03-28 16:41:00,
2013-03-28 09:52:00,51.0,50.0,30.01,East,97,0.0,-999.0,97,-99.99,,,-99.99,,2013-03-28 16:52:00,
2013-03-28 10:02:00,51.0,50.0,30.01,ENE,69,1.0,-999.0,97,-99.99,,,-99.99,,2013-03-28 17:02:00,
2013-03-28 10:12:00,51.0,50.0,30.01,ENE,69,1.0,-999.0,97,-99.99,,,-99.99,,2013-03-28 17:12:00,
2013-03-28 10:22:00,53.0,52.0,30.02,East,80,2.0,-999.0,96,-99.99,,,-99.99,,2013-03-28 17:22:00,
2013-03-28 10:31:00,53.0,51.0,30.02,ENE,70,0.0,-999.0,94,-99.99,,,-99.99,,2013-03-28 17:31:00,
2013-03-28 10:42:00,53.0,51.0,30.02,ENE,70,0.0,-999.0,94,-99.99,,,-99.99,,2013-03-28 17:42:00,
2013-03-28 10:52:00,55.0,52.0,30.02,ENE,74,1.0,-999.0,88,-99.99,,,-99.99,,2013-03-28 17:52:00,
2013-03-28 11:02:00,56.0,51.0,30.02,East,93,1.0,-999.0,84,-99.99,,,-99.99,,2013-03-28 18:02:00,
2013-03-28 11:12:00,56.0,51.0,30.02,East,93,1.0,-999.0,84,-99.99,,,-99.99,,2013-03-28 18:12:00,
2013-03-28 11:22:00,58.0,51.0,30.02,ESE,118,1.0,-999.0,78,-99.99,,,-99.99,,2013-03-28 18:22:00,
2013-03-28 11:31:00,58.0,51.0,30.02,East,83,1.0,-999.0,77,-99.99,,,-99.99,,2013-03-28 18:31:00,
2013-03-28 11:42:00,58.0,51.0,30.02,East,83,1.0,-999.0,77,-99.99,,,-99.99,,2013-03-28 18:42:00,
2013-03-28 11:52:00,60.0,51.0,30.02,NNE,27,2.0,-999.0,71,-99.99,,,-99.99,,2013-03-28 18:52:00,
2013-03-28 12:01:00,61.0,51.0,30.02,ESE,111,2.0,-999.0,69,-99.99,,,-99.99,,2013-03-28 19:01:00,
2013-03-28 12:11:00,61.0,51.0,30.02,ESE,111,2.0,-999.0,69,-99.99,,,-99.99,,2013-03-28 19:11:00,
2013-03-28 12:22:00,61.0,51.0,30.03,East,84,1.0,-999.0,69,-99.99,,,-99.99,,2013-03-28 19:22:00,
2013-03-28 12:32:00,61.0,51.0,30.03,East,89,1.0,-999.0,69,-99.99,,,-99.99,,2013-03-28 19:32:00,
2013-03-28 12:42:00,61.0,51.0,30.03,East,89,1.0,-999.0,69,-99.99,,,-99.99,,2013-03-28 19:42:00,
2013-03-28 12:52:00,62.0,50.0,30.02,ENE,57,2.0,-999.0,65,-99.99,,,-99.99,,2013-03-28 19:52:00,
2013-03-28 13:02:00,62.0,48.0,30.02,East,88,2.0,-999.0,60,-99.99,,,-99.99,,2013-03-28 20:02:00,
2013-03-28 13:11:00,62.0,48.0,30.02,East,88,2.0,-999.0,60,-99.99,,,-99.99,,2013-03-28 20:11:00,
2013-03-28 13:21:00,63.0,48.0,30.02,NNE,24,2.0,-999.0,57,-99.99,,,-99.99,,2013-03-28 20:21:00,
2013-03-28 13:32:00,64.0,47.0,30.01,North,360,1.0,-999.0,55,-99.99,,,-99.99,,2013-03-28 20:32:00,
2013-03-28 13:42:00,64.0,47.0,30.01,North,360,1.0,-999.0,55,-99.99,,,-99.99,,2013-03-28 20:42:00,
2013-03-28 13:52:00,65.0,49.0,30.01,NE,46,1.0,-999.0,57,-99.99,,,-99.99,,2013-03-28 20:52:00,
2013-03-28 14:02:00,65.0,49.0,30.01,NE,46,1.0,-999.0,57,-99.99,,,-99.99,,2013-03-28 21:02:00,
2013-03-28 14:11:00,65.0,49.0,30.01,NE,46,1.0,-999.0,57,-99.99,,,-99.99,,2013-03-28 21:11:00,
2013-03-28 14:22:00,66.0,48.0,30.01,East,85,3.0,-999.0,53,-99.99,,,-99.99,,2013-03-28 21:22:00,
2013-03-28 14:32:00,67.0,48.0,30.01,WNW,299,2.0,-999.0,50,-99.99,,,-99.99,,2013-03-28 21:32:00,
2013-03-28 14:43:00,67.0,48.0,30.01,WNW,299,2.0,-999.0,50,-99.99,,,-99.99,,2013-03-28 21:43:00,
2013-03-28 14:53:00,68.0,48.0,30.00,NE,42,1.0,-999.0,48,-99.99,,,-99.99,,2013-03-28 21:53:00,
2013-03-28 15:02:00,68.0,47.0,30.00,East,84,2.0,-999.0,47,-99.99,,,-99.99,,2013-03-28 22:02:00,
2013-03-28 15:12:00,68.0,47.0,30.00,East,84,2.0,-999.0,47,-99.99,,,-99.99,,2013-03-28 22:12:00,
2013-03-28 15:22:00,68.0,46.0,30.00,NNE,24,3.0,-999.0,45,-99.99,,,-99.99,,2013-03-28 22:22:00,
2013-03-28 15:32:00,68.0,46.0,30.00,SSW,192,0.0,-999.0,45,-99.99,,,-99.99,,2013-03-28 22:32:00,
2013-03-28 15:42:00,68.0,46.0,30.00,SSW,192,0.0,-999.0,45,-99.99,,,-99.99,,2013-03-28 22:42:00,
2013-03-28 15:52:00,67.0,46.0,29.99,SSW,196,0.0,-999.0,46,-99.99,,,-99.99,,2013-03-28 22:52:00,
2013-03-28 16:01:00,67.0,46.0,29.99,NW,309,1.0,-999.0,47,-99.99,,,-99.99,,2013-03-28 23:01:00,
2013-03-28 16:12:00,67.0,46.0,29.99,NW,309,1.0,-999.0,47,-99.99,,,-99.99,,2013-03-28 23:12:00,
2013-03-28 16:21:00,67.0,47.0,29.99,NNW,337,2.0,-999.0,49,-99.99,,,-99.99,,2013-03-28 23:21:00,
2013-03-28 16:31:00,67.0,50.0,30.00,WNW,296,2.0,-999.0,54,-99.99,,,-99.99,,2013-03-28 23:31:00,
2013-03-28 16:42:00,67.0,50.0,30.00,WNW,296,2.0,-999.0,54,-99.99,,,-99.99,,2013-03-28 23:42:00,
2013-03-28 16:52:00,66.0,50.0,30.00,WSW,257,3.0,-999.0,56,-99.99,,,-99.99,,2013-03-28 23:52:00,
2013-03-28 17:02:00,66.0,51.0,30.00,NNW,327,4.0,-999.0,58,-99.99,,,-99.99,,2013-03-29 00:02:00,
2013-03-28 17:11:00,66.0,51.0,30.00,NNW,327,4.0,-999.0,58,-99.99,,,-99.99,,2013-03-29 00:11:00,
2013-03-28 17:22:00,65.0,51.0,30.01,NNW,328,2.0,-999.0,60,-99.99,,,-99.99,,2013-03-29 00:22:00,
2013-03-28 17:32:00,64.0,51.0,30.01,WNW,290,1.0,-999.0,63,-99.99,,,-99.99,,2013-03-29 00:32:00,
2013-03-28 17:42:00,64.0,51.0,30.01,WNW,290,1.0,-999.0,63,-99.99,,,-99.99,,2013-03-29 00:42:00,
2013-03-28 17:52:00,62.0,52.0,30.02,West,269,3.0,-999.0,69,-99.99,,,-99.99,,2013-03-29 00:52:00,
2013-03-28 18:02:00,61.0,52.0,30.03,WNW,289,3.0,-999.0,72,-99.99,,,-99.99,,2013-03-29 01:02:00,
2013-03-28 18:11:00,61.0,52.0,30.03,WNW,289,3.0,-999.0,72,-99.99,,,-99.99,,2013-03-29 01:11:00,
2013-03-28 18:22:00,59.0,51.0,30.03,West,269,3.0,-999.0,76,-99.99,,,-99.99,,2013-03-29 01:22:00,
2013-03-28 18:31:00,58.0,51.0,30.03,NW,309,2.0,-999.0,77,-99.99,,,-99.99,,2013-03-29 01:31:00,
2013-03-28 18:42:00,58.0,51.0,30.03,NW,309,2.0,-999.0,77,-99.99,,,-99.99,,2013-03-29 01:42:00,
2013-03-28 18:52:00,58.0,51.0,30.04,NW,304,1.0,-999.0,77,-99.99,,,-99.99,,2013-03-29 01:52:00,
2013-03-28 19:02:00,58.0,50.0,30.04,NW,306,2.0,-999.0,76,-99.99,,,-99.99,,2013-03-29 02:02:00,
2013-03-28 19:11:00,58.0,50.0,30.04,NW,306,2.0,-999.0,76,-99.99,,,-99.99,,2013-03-29 02:11:00,
2013-03-28 19:21:00,58.0,50.0,30.04,West,276,1.0,-999.0,76,-99.99,,,-99.99,,2013-03-29 02:21:00,
2013-03-28 19:31:00,58.0,50.0,30.04,West,275,1.0,-999.0,76,-99.99,,,-99.99,,2013-03-29 02:31:00,
2013-03-28 19:41:00,58.0,50.0,30.04,West,275,1.0,-999.0,76,-99.99,,,-99.99,,2013-03-29 02:41:00,
2013-03-28 19:52:00,57.0,50.0,30.05,West,281,0.0,-999.0,76,-99.99,,,-99.99,,2013-03-29 02:52:00,
2013-03-28 20:01:00,57.0,50.0,30.05,West,273,1.0,-999.0,76,-99.99,,,-99.99,,2013-03-29 03:01:00,
2013-03-28 20:11:00,57.0,50.0,30.05,West,273,1.0,-999.0,76,-99.99,,,-99.99,,2013-03-29 03:11:00,
2013-03-28 20:21:00,57.0,50.0,30.06,WSW,257,0.0,-999.0,77,-99.99,,,-99.99,,2013-03-29 03:21:00,
2013-03-28 20:32:00,56.0,49.0,30.06,WSW,257,0.0,-999.0,78,-99.99,,,-99.99,,2013-03-29 03:32:00,
2013-03-28 20:42:00,56.0,49.0,30.06,WSW,257,0.0,-999.0,78,-99.99,,,-99.99,,2013-03-29 03:42:00,
2013-03-28 20:53:00,56.0,50.0,30.06,WSW,257,0.0,-999.0,80,-99.99,,,-99.99,,2013-03-29 03:53:00,
2013-03-28 21:02:00,55.0,49.0,30.06,WSW,257,0.0,-999.0,81,-99.99,,,-99.99,,2013-03-29 04:02:00,
2013-03-28 21:12:00,55.0,49.0,30.06,WSW,257,0.0,-999.0,81,-99.99,,,-99.99,,2013-03-29 04:12:00,
2013-03-28 21:22:00,55.0,50.0,30.07,NW,319,0.0,-999.0,82,-99.99,,,-99.99,,2013-03-29 04:22:00,
2013-03-28 21:32:00,55.0,50.0,30.08,NW,319,0.0,-999.0,82,-99.99,,,-99.99,,2013-03-29 04:32:00,
2013-03-28 21:42:00,55.0,50.0,30.08,NW,319,0.0,-999.0,82,-99.99,,,-99.99,,2013-03-29 04:42:00,
2013-03-28 21:52:00,54.0,49.0,30.09,West,264,1.0,-999.0,83,-99.99,,,-99.99,,2013-03-29 04:52:00,
2013-03-28 22:02:00,54.0,49.0,30.09,NW,314,1.0,-999.0,82,-99.99,,,-99.99,,2013-03-29 05:02:00,
2013-03-28 22:12:00,54.0,49.0,30.09,NW,314,1.0,-999.0,82,-99.99,,,-99.99,,2013-03-29 05:12:00,
2013-03-28 22:22:00,54.0,49.0,30.09,WNW,298,0.0,-999.0,82,-99.99,,,-99.99,,2013-03-29 05:22:00,
2013-03-28 22:32:00,53.0,48.0,30.09,WNW,298,0.0,-999.0,82,-99.99,,,-99.99,,2013-03-29 05:32:00,
2013-03-28 22:42:00,53.0,48.0,30.09,WNW,298,0.0,-999.0,82,-99.99,,,-99.99,,2013-03-29 05:42:00,
2013-03-28 22:52:00,53.0,48.0,30.10,NNW,334,0.0,-999.0,83,-99.99,,,-99.99,,2013-03-29 05:52:00,
2013-03-28 23:01:00,52.0,47.0,30.10,NNW,334,0.0,-999.0,83,-99.99,,,-99.99,,2013-03-29 06:01:00,
2013-03-28 23:12:00,52.0,47.0,30.10,NNW,334,0.0,-999.0,83,-99.99,,,-99.99,,2013-03-29 06:12:00,
2013-03-28 23:22:00,51.0,46.0,30.11,NNW,334,0.0,-999.0,84,-99.99,,,-99.99,,2013-03-29 06:22:00,
2013-03-28 23:32:00,51.0,47.0,30.11,NNW,334,0.0,-999.0,86,-99.99,,,-99.99,,2013-03-29 06:32:00,
2013-03-28 23:41:00,51.0,47.0,30.11,NNW,334,0.0,-999.0,86,-99.99,,,-99.99,,2013-03-29 06:41:00,
2013-03-28 23:52:00,50.0,46.0,30.11,NNW,334,0.0,-999.0,87,-99.99,,,-99.99,,2013-03-29 06:52:00,